Weather History for Wooster, OH

Change the Weather History Date:

Sunday, September 8, 2013

  Actual Average Record
Temperature  
Mean Temperature 65 °F -  
Max Temperature 75 °F 75 °F 91 °F (2002)
Min Temperature 55 °F 51 °F 48 °F (2008)
Growing Degree Days 15 (Base 50)    
Moisture  
Dew Point 62 °F    
Average Humidity 82    
Maximum Humidity 96    
Minimum Humidity 66    
Precipitation  
Precipitation 0.00 in - - ()
Sea Level Pressure  
Sea Level Pressure 30.01 in    
Wind  
Wind Speed 6 mph (NNE)    
Max Wind Speed 14 mph    
Max Gust Speed 16 mph    
Visibility 7 miles    
Events      
Averages and records for this station are not official NWS values.
T = Trace of Precipitation, MM = Missing Value Source: NWS Daily Summary

Daily Weather History Graph

Daily Weather History Graph

Search for Another Location

Airport:

Trip Planner

Search our weather history database for the weather conditions in past years. The results will help you decide how hot, cold, wet, or windy it might be!

Date:

Astronomy

Sep. 08, 2013 Rise Set
Actual Time 7:01 AM EDT 7:47 PM EDT
Civil Twilight 6:33 AM EDT 8:15 PM EDT
Nautical Twilight 6:00 AM EDT 8:48 PM EDT
Astronomical Twilight 5:26 AM EDT 9:22 PM EDT
Moon 10:19 AM EDT (9/8) 9:20 PM EDT (9/8)
Length of Visible Light 13h 42m
Length of Day
12h 46m
Waxing Crescent, 11% of the Moon is Illuminated
Sep 8
Waxing Crescent
Sep 12
First Quarter
Sep 19
Full
Sep 26
Last Quarter
Oct 4
New

Hourly Weather History & Observations

Time (EDT) Temp. Dew Point Humidity Pressure Visibility Wind Dir Wind Speed Gust Speed Precip Events Conditions
12:56 AM 68.0 °F 63.0 °F 84% 29.95 in 10.0 mi SW 3.5 mph - N/A   Overcast
1:56 AM 66.9 °F 63.0 °F 87% 29.94 in 10.0 mi SW 3.5 mph - N/A   Overcast
2:56 AM 66.0 °F 62.1 °F 87% 29.94 in 9.0 mi Calm Calm - N/A   Scattered Clouds
3:56 AM 64.0 °F 62.1 °F 93% 29.93 in 8.0 mi Calm Calm - N/A   Overcast
4:56 AM 64.9 °F 61.0 °F 87% 29.94 in 7.0 mi Calm Calm - N/A   Partly Cloudy
5:56 AM 60.1 °F 59.0 °F 96% 29.95 in 4.0 mi Calm Calm - N/A   Clear
6:56 AM 60.1 °F 59.0 °F 96% 29.96 in 4.0 mi NNW 3.5 mph - N/A   Clear
7:30 AM 64.4 °F 62.6 °F 94% 29.99 in 2.5 mi NNW 4.6 mph - N/A   Partly Cloudy
7:56 AM 66.0 °F 64.0 °F 93% 29.98 in 2.0 mi NNW 3.5 mph - N/A   Clear
8:25 AM 68.0 °F 64.4 °F 88% 30.00 in 2.5 mi North 6.9 mph - N/A   Mostly Cloudy
8:34 AM 68.0 °F 64.4 °F 88% 30.00 in 2.5 mi North 5.8 mph - N/A   Overcast
8:41 AM 68.0 °F 64.4 °F 88% 30.00 in 2.5 mi North 5.8 mph - N/A   Overcast
8:48 AM 68.0 °F 64.4 °F 88% 30.00 in 2.0 mi NNW 8.1 mph - N/A   Overcast
8:56 AM 68.0 °F 66.0 °F 93% 29.99 in 2.0 mi North 6.9 mph - N/A   Overcast
9:56 AM 70.0 °F 66.9 °F 90% 30.00 in 2.5 mi North 9.2 mph - N/A   Mostly Cloudy
10:06 AM 69.8 °F 66.2 °F 88% 30.01 in 2.5 mi North 9.2 mph - N/A   Mostly Cloudy
10:56 AM 70.0 °F 66.9 °F 90% 30.01 in 3.0 mi NNE 9.2 mph - N/A   Overcast
11:37 AM 71.6 °F 66.2 °F 83% 30.03 in 5.0 mi NNE 8.1 mph - N/A   Haze
11:56 AM 73.0 °F 66.0 °F 79% 30.02 in 6.0 mi NNE 9.2 mph - N/A   Haze
12:15 PM 71.6 °F 64.4 °F 78% 30.04 in 8.0 mi NNE 11.5 mph 16.1 mph N/A   Overcast
12:39 PM 71.6 °F 64.4 °F 78% 30.04 in 8.0 mi NNE 10.4 mph - N/A   Overcast
12:56 PM 72.0 °F 64.9 °F 78% 30.03 in 9.0 mi NE 12.7 mph - N/A   Overcast
1:17 PM 71.6 °F 64.4 °F 78% 30.05 in 10.0 mi NE 11.5 mph - N/A   Overcast
1:39 PM 73.4 °F 64.4 °F 73% 30.04 in 10.0 mi NE 13.8 mph - N/A   Mostly Cloudy
1:56 PM 73.9 °F 64.0 °F 71% 30.03 in 10.0 mi NE 10.4 mph - N/A   Mostly Cloudy
2:56 PM 72.0 °F 63.0 °F 73% 30.04 in 10.0 mi NNE 9.2 mph - N/A   Overcast
3:17 PM 71.6 °F 60.8 °F 69% 30.05 in 10.0 mi NNE 9.2 mph - N/A   Overcast
3:25 PM 73.4 °F 62.6 °F 69% 30.05 in 10.0 mi NNE 11.5 mph - N/A   Mostly Cloudy
3:56 PM 73.9 °F 62.1 °F 66% 30.04 in 10.0 mi NE 9.2 mph - N/A   Partly Cloudy
4:56 PM 73.9 °F 62.1 °F 66% 30.02 in 10.0 mi NE 10.4 mph - N/A   Mostly Cloudy
5:56 PM 72.0 °F 60.1 °F 66% 30.03 in 10.0 mi NNE 9.2 mph - N/A   Clear
6:56 PM 70.0 °F 59.0 °F 68% 30.04 in 10.0 mi NNE 6.9 mph - N/A   Clear
7:56 PM 64.0 °F 59.0 °F 84% 30.05 in 10.0 mi North 6.9 mph - N/A   Clear
8:56 PM 62.1 °F 57.0 °F 84% 30.06 in 10.0 mi North 6.9 mph - N/A   Clear
9:56 PM 60.1 °F 55.0 °F 83% 30.07 in 10.0 mi NNE 6.9 mph - N/A   Clear
10:56 PM 57.0 °F 54.0 °F 89% 30.07 in 10.0 mi East 5.8 mph - N/A   Clear
11:56 PM 55.0 °F 51.1 °F 86% 30.08 in 10.0 mi East 4.6 mph - N/A   Clear